TimeMDT,TemperatureF,Dew PointF,Humidity,Sea Level PressureIn,VisibilityMPH,Wind Direction,Wind SpeedMPH,Gust SpeedMPH,PrecipitationIn,Events,Conditions,WindDirDegrees,DateUTC
12:53 AM,77.0,36.0,23,29.73,10.0,SSW,10.4,-,N/A,,Clear,210,2013-08-08 06:53:00
1:53 AM,73.9,36.0,25,29.75,10.0,South,10.4,-,N/A,,Clear,190,2013-08-08 07:53:00
2:53 AM,73.9,36.0,25,29.75,10.0,SSW,11.5,-,N/A,,Partly Cloudy,210,2013-08-08 08:53:00
3:53 AM,70.0,35.1,28,29.75,10.0,South,10.4,-,N/A,,Clear,190,2013-08-08 09:53:00
4:53 AM,70.0,34.0,27,29.75,10.0,South,15.0,-,N/A,,Clear,190,2013-08-08 10:53:00
5:53 AM,68.0,34.0,28,29.77,10.0,South,12.7,-,N/A,,Clear,190,2013-08-08 11:53:00
6:53 AM,68.0,35.1,30,29.79,10.0,South,10.4,-,N/A,,Clear,190,2013-08-08 12:53:00
7:53 AM,72.0,35.1,26,29.80,10.0,SSW,8.1,-,N/A,,Clear,200,2013-08-08 13:53:00
8:53 AM,75.9,36.0,23,29.81,10.0,SSW,8.1,-,N/A,,Clear,210,2013-08-08 14:53:00
9:53 AM,78.1,34.0,20,29.81,10.0,SW,8.1,-,N/A,,Clear,220,2013-08-08 15:53:00
10:53 AM,81.0,37.9,21,29.81,10.0,NW,8.1,-,N/A,,Clear,320,2013-08-08 16:53:00
11:53 AM,79.0,39.9,25,29.81,10.0,NNW,10.4,-,N/A,,Clear,330,2013-08-08 17:53:00
12:53 PM,80.1,39.0,23,29.80,10.0,NW,5.8,-,N/A,,Clear,320,2013-08-08 18:53:00
1:53 PM,82.9,39.9,22,29.78,10.0,NNE,5.8,-,N/A,,Clear,20,2013-08-08 19:53:00
2:53 PM,84.9,44.1,24,29.77,10.0,ENE,11.5,-,N/A,,Clear,60,2013-08-08 20:53:00
3:53 PM,89.1,42.1,19,29.74,10.0,ENE,12.7,-,N/A,,Clear,60,2013-08-08 21:53:00
4:53 PM,93.0,37.0,14,29.71,10.0,ENE,12.7,-,N/A,,Clear,60,2013-08-08 22:53:00
5:53 PM,90.0,42.1,19,29.70,10.0,NE,12.7,-,N/A,,Clear,40,2013-08-08 23:53:00
6:53 PM,89.1,45.0,22,29.67,10.0,NE,9.2,-,N/A,,Clear,40,2013-08-09 00:53:00
7:53 PM,84.0,48.9,29,29.67,10.0,ENE,9.2,-,N/A,,Clear,70,2013-08-09 01:53:00
8:53 PM,75.9,48.0,37,29.69,10.0,ESE,10.4,-,N/A,,Clear,110,2013-08-09 02:53:00
9:53 PM,73.9,46.0,37,29.70,10.0,East,10.4,-,N/A,,Clear,100,2013-08-09 03:53:00
10:53 PM,66.9,48.0,51,29.73,10.0,East,8.1,-,N/A,,Clear,80,2013-08-09 04:53:00
11:53 PM,71.1,46.9,42,29.75,10.0,NE,18.4,24.2,N/A,,Clear,50,2013-08-09 05:53:00